Flag for U.S.A. Weather past 2 weeks in Waterbury, Connecticut, U.S.A.

Now
55 °F

Overcast.


Feels Like: 53 °F
Forecast: 34 / 59 °F
Wind: 10 mph from North

Location: Oxford

Current Time: Apr 26, 2015 at 4:12:52 PM

Latest Report: Apr 26, 2015 at 3:50 PM


Visibility: 10 mi

Pressure: 29.66 "Hg

Humidity: 38%

Dew point: 30 °F

Location of WaterburyLocation

Historic Weather in Waterbury — Graph

°F

Waterbury temperature yesterday

Maximum temperature yesterday: 55 °F (at 5:50 PM)
Minimum temperature yesterday: 30 °F (at 1:55 AM)
Average temperature yesterday: 39 °F

Past Weeks' High & Low Weather Summary

 TemperatureHumidityPressure
High75 °F (Apr 18, 3:50 PM)82% (Apr 17, 5:15 AM)30.50 "Hg (Apr 17, 5:15 AM)
Low30 °F (Apr 25, 1:55 AM)19% (Apr 15, 2:50 PM)29.56 "Hg (Apr 21, 4:15 AM)
Average48 °F52%30.00 "Hg
* Reported Apr 11 2:52 PM — Apr 26 2:50 PM, Waterbury, Weather by CustomWeather, © 2015

Note: Actual official high and low records may vary slightly from our data, if they occured in-between our weather recording intervals... More about our weather records

Advertising

Waterbury weather history for previous 24 hours

 ConditionsComfort  
Time TempWeatherWind HumidityBarometerVisibility
2:50 PM
Sun, Apr 26
54 °FPartly sunny.10 mph41%29.65 "Hg10 mi
1:50 PM55 °FOvercast.10 mph38%29.66 "Hg10 mi
12:50 PM54 °FPartly sunny.10 mph41%29.67 "Hg10 mi
11:50 AM54 °FPartly sunny.6 mph41%29.68 "Hg10 mi
10:50 AM52 °FBroken clouds.12 mph44%29.69 "Hg10 mi
9:50 AM48 °FPartly sunny.6 mph50%29.71 "Hg10 mi
8:50 AM45 °FPartly sunny.6 mph53%29.71 "Hg10 mi
7:50 AM39 °FPartly sunny.6 mph65%29.71 "Hg10 mi
6:50 AM36 °FClear.No wind65%29.71 "Hg10 mi
5:50 AM36 °FClear.No wind60%29.70 "Hg10 mi
5:35 AM34 °FClear.No wind65%29.70 "Hg10 mi
5:15 AM36 °FClear.No wind60%29.69 "Hg10 mi
4:55 AM36 °FClear.No wind60%29.68 "Hg10 mi
4:35 AM39 °FClear.3 mph56%29.68 "Hg10 mi
4:15 AM39 °FClear.5 mph56%29.68 "Hg10 mi
3:55 AM41 °FClear.6 mph53%29.68 "Hg10 mi
3:35 AM41 °FClear.6 mph53%29.68 "Hg10 mi
3:15 AM39 °FClear.7 mph56%29.68 "Hg10 mi
2:55 AM41 °FClear.6 mph53%29.68 "Hg10 mi
2:35 AM41 °FClear.7 mph53%29.69 "Hg10 mi
2:15 AM41 °FClear.7 mph53%29.69 "Hg10 mi
1:55 AM39 °FClear.7 mph56%29.69 "Hg10 mi
1:35 AM41 °FClear.8 mph53%29.70 "Hg10 mi
1:15 AM41 °FClear.8 mph53%29.71 "Hg10 mi
12:55 AM43 °FClear.8 mph53%29.71 "Hg10 mi
12:35 AM43 °FClear.10 mph53%29.71 "Hg10 mi
12:15 AM43 °FClear.9 mph53%29.71 "Hg10 mi
11:15 PM
Sat, Apr 25
39 °FClear.8 mph56%29.71 "Hg10 mi
10:55 PM39 °FClear.6 mph52%29.72 "Hg10 mi
10:35 PM43 °FClear.6 mph49%29.72 "Hg10 mi
10:15 PM45 °FClear.7 mph46%29.73 "Hg10 mi
9:55 PM43 °FClear.8 mph49%29.73 "Hg10 mi
9:35 PM45 °FClear.7 mph46%29.73 "Hg10 mi
9:15 PM46 °FClear.7 mph43%29.73 "Hg10 mi
8:55 PM45 °FPassing clouds.8 mph46%29.73 "Hg10 mi
7:50 PM48 °FScattered clouds.9 mph40%29.72 "Hg10 mi
6:50 PM54 °FPassing clouds.12 mph33%29.70 "Hg10 mi
5:50 PM55 °FPassing clouds.9 mph33%29.69 "Hg10 mi
4:50 PM54 °FPassing clouds.9 mph33%29.69 "Hg10 mi
Weather by CustomWeather, © 2015

See weather overviewHow to use our weather pages